GFSFLT2_prec_cthk_315.txt.gz
RH
33 34 36 34 32 28 26 25 23 22 21 21 21 21 21 22 22 22 22 22 24 27 29 30 30 30 32 31 30 34 39 49
40 38 39 34 32 28 27 25 24 24 25 27 27 27 27 30 27 29 32 35 36 37 40 41 42 46 55 59 49 58 66 72
49 45 41 38 34 29 27 25 24 26 27 29 34 36 54 52 43 47 49 48 53 53 50 45 47 56 59 58 58 59 61 65
57 56 48 41 39 33 30 24 22 25 30 34 45 53 54 53 58 58 54 50 49 46 48 48 48 50 52 51 55 58 58 56
63 70 61 48 47 42 34 30 26 26 29 37 52 55 58 61 61 58 52 50 46 46 46 44 45 42 44 43 47 47 46 46
64 66 65 61 50 47 37 37 33 35 38 46 52 56 57 59 65 60 50 48 42 45 46 48 44 44 46 41 38 38 42 40
71 67 59 57 46 47 47 40 37 38 42 49 53 58 58 58 51 42 41 39 42 44 41 41 44 43 41 37 35 34 29 29
67 59 53 49 47 47 46 40 40 43 48 55 56 51 41 35 32 31 30 30 29 36 40 40 43 40 34 32 31 27 24 22
52 49 44 42 43 46 50 48 45 48 47 41 41 38 32 27 28 28 26 27 28 33 35 40 41 37 32 28 24 21 16 14
57 54 50 49 55 56 54 54 48 40 35 34 38 35 30 27 26 26 25 26 28 34 38 42 42 41 33 27 19 14 10 9
58 57 61 65 60 59 56 52 40 39 38 35 36 35 30 27 26 27 26 26 29 33 33 33 33 33 30 26 23 14 11 11
60 60 68 72 68 59 54 51 47 45 43 36 35 37 33 28 26 25 24 23 26 29 28 27 32 36 34 33 25 19 15 16
63 64 66 71 71 66 61 53 53 56 49 45 41 35 37 35 33 29 28 27 29 34 38 38 47 42 41 40 28 21 17 16
59 58 59 66 69 70 70 67 66 64 63 62 54 45 37 38 36 34 33 33 34 34 35 31 36 35 35 35 28 20 19 17
56 60 62 60 62 63 67 72 71 73 73 65 64 60 55 49 45 40 40 39 36 36 32 29 28 34 32 26 21 16 16 16
55 60 60 58 59 56 61 68 67 68 62 67 64 63 59 56 52 47 42 41 43 43 41 38 32 14 15 17 12 10 15 16
52 55 57 60 56 52 51 51 53 54 46 47 46 49 51 48 49 49 46 47 47 40 33 24 17 11 7 7 7 8 9 9
54 55 56 55 51 50 46 44 47 39 33 34 37 37 36 34 32 33 35 33 27 19 13 11 8 8 7 7 7 8 9 9
54 53 52 49 49 47 47 47 46 40 36 33 31 30 26 28 30 27 23 16 14 11 9 7 6 6 7 7 7 8 9 10
50 50 49 47 46 42 40 42 41 41 37 35 33 27 23 21 19 18 16 14 13 9 6 6 6 7 7 7 8 9 10 10

GFSFLT2_prec_cthk_321.txt.gz
RH
31 28 29 28 29 31 32 29 25 20 18 17 16 16 16 15 15 16 16 17 18 19 23 26 27 29 32 41 40 40 43 48
37 35 31 30 33 33 31 29 26 23 21 20 19 18 18 18 18 19 21 24 29 32 35 38 39 44 49 51 47 47 51 55
39 41 39 36 34 32 33 32 29 27 26 23 20 26 24 24 26 30 35 43 50 49 46 44 45 46 51 51 52 53 55 56
42 41 41 39 39 38 36 34 33 30 26 26 28 35 38 39 43 52 55 51 45 42 44 44 45 47 49 52 53 54 56 56
46 46 42 39 37 37 35 35 35 32 29 32 36 36 42 52 60 60 52 46 43 43 43 46 46 43 43 44 47 50 48 46
51 52 46 41 39 36 35 37 36 33 30 30 35 39 49 56 63 61 52 43 44 43 43 45 42 40 40 39 39 36 42 40
56 59 58 54 49 47 47 42 39 39 37 36 39 43 52 62 63 57 50 47 49 46 44 43 42 40 39 36 37 37 34 27
66 67 64 64 62 59 51 48 46 47 45 42 43 46 52 59 58 51 45 44 46 43 45 44 42 36 32 32 31 29 22 20
69 71 71 70 66 61 56 52 49 49 53 54 47 40 41 44 44 42 38 36 35 39 45 43 41 36 29 25 23 23 22 23
71 72 70 64 55 52 53 55 54 54 52 39 37 31 28 29 34 37 38 36 35 38 42 40 41 34 28 26 27 28 30 33
70 70 65 55 49 50 55 60 62 53 44 40 37 31 29 27 29 33 37 38 39 39 41 43 40 32 29 32 36 34 33 33
67 61 58 50 47 53 59 62 52 48 43 40 37 35 30 28 31 30 34 42 45 45 49 46 40 39 38 40 36 39 39 29
61 55 50 50 50 59 64 56 55 53 48 44 40 37 40 41 36 35 42 44 51 56 53 54 53 47 44 47 47 44 42 31
56 51 50 49 58 62 62 60 60 60 55 55 53 54 52 49 49 50 46 48 53 55 61 55 56 56 58 56 50 43 27 24
56 52 51 56 59 61 61 63 66 67 66 69 67 62 58 59 60 66 67 66 55 52 54 58 55 60 52 44 32 29 25 17
57 54 54 56 57 57 59 53 57 63 63 66 68 67 66 66 71 69 55 56 51 52 55 58 57 49 36 34 27 20 20 22
59 58 53 58 56 59 55 50 54 61 65 64 48 45 48 55 51 43 37 42 43 36 31 37 44 30 27 26 21 15 15 16
59 57 53 56 56 57 50 46 51 52 49 44 39 39 39 38 35 32 33 29 25 25 21 16 14 15 15 10 8 10 8 9
54 56 52 53 55 55 50 45 47 44 40 33 30 32 32 30 27 24 25 26 23 17 13 13 11 9 8 7 7 7 8 9
52 52 52 52 55 51 49 43 42 41 41 36 33 34 31 27 25 23 19 18 16 14 13 12 10 8 8 8 8 8 9 9

GFSFLT2_prec_cthk_327.txt.gz
RH
36 37 33 31 29 31 30 28 25 22 19 18 16 15 15 15 14 15 14 15 16 18 23 31 33 38 43 49 48 49 52 55
38 35 39 34 30 31 31 29 26 23 22 21 19 18 17 17 17 18 19 20 22 28 39 41 44 47 54 53 50 52 57 58
39 39 35 36 34 32 33 33 30 26 25 24 21 21 21 21 22 23 26 32 44 54 49 49 49 50 52 52 54 53 53 54
38 38 36 36 38 38 39 37 34 31 29 29 26 23 22 26 31 39 46 57 54 51 50 48 47 49 49 49 51 52 56 53
42 40 39 39 36 38 39 38 38 37 35 32 36 37 43 45 51 58 63 64 57 47 47 47 44 46 44 44 43 42 42 44
46 43 40 38 37 39 37 37 36 34 36 38 44 55 49 55 60 68 70 64 57 51 49 48 48 50 48 41 38 39 39 33
55 48 44 41 42 42 41 37 38 39 38 39 42 43 47 57 66 70 72 71 65 55 56 54 52 51 44 38 34 29 23 26
55 50 48 48 47 47 46 46 46 44 44 48 48 49 52 57 60 64 64 62 60 62 60 53 49 46 38 32 25 23 24 23
60 53 55 59 58 55 54 53 54 56 53 54 55 56 57 57 56 54 51 50 50 54 53 50 50 44 32 26 26 27 28 33
66 62 65 66 65 66 64 59 55 55 56 55 59 56 50 48 44 40 39 39 45 46 51 53 47 38 34 33 35 39 44 48
73 69 71 72 73 65 56 50 51 54 60 57 48 45 42 37 37 38 39 38 40 43 41 42 40 35 39 43 46 54 60 45
76 74 74 73 73 61 51 49 52 57 50 42 40 38 38 36 35 35 37 41 44 45 43 49 50 51 53 56 61 63 47 42
74 69 71 71 64 49 45 48 54 51 42 39 41 39 42 36 35 37 35 38 46 50 55 57 60 63 68 68 63 50 30 26
73 72 69 61 56 48 46 54 55 50 47 47 42 44 47 43 49 52 58 64 67 69 74 62 58 61 58 55 43 29 23 20
72 67 65 58 53 48 49 56 54 50 49 49 52 58 56 43 51 61 69 76 75 77 70 60 51 47 43 38 30 24 21 18
73 65 63 53 49 45 54 54 52 49 50 60 58 52 50 46 48 56 66 65 61 58 59 49 43 40 34 27 27 25 21 19
69 62 59 52 49 50 55 53 49 47 51 56 51 46 43 44 46 45 42 44 36 38 37 34 34 31 27 26 23 22 18 15
65 67 61 54 49 52 57 51 48 45 45 48 49 44 37 35 34 32 27 26 27 27 30 29 27 27 26 24 21 21 12 13
57 58 61 57 50 53 55 51 46 42 43 44 38 31 28 28 27 23 21 20 21 22 20 18 21 24 24 22 19 13 8 8
50 55 69 59 54 54 54 53 47 44 42 34 27 25 26 25 23 20 21 22 20 18 16 16 17 18 18 13 9 7 8 8

GFSFLT2_prec_cthk_330.txt.gz
RH
42 39 31 31 32 33 32 28 25 22 21 20 19 18 17 16 16 15 16 18 19 21 24 32 38 43 49 51 52 53 57 56
41 40 39 37 34 34 31 29 26 23 22 21 20 18 17 17 17 17 18 21 25 30 41 47 46 53 56 53 55 53 52 55
42 42 40 40 39 33 32 31 29 26 24 23 23 29 27 27 23 23 24 30 41 51 50 48 52 52 52 54 51 51 52 53
41 41 41 40 41 37 38 35 37 36 34 30 37 34 36 35 29 34 39 50 55 52 50 51 50 49 45 46 46 46 53 46
40 38 40 41 43 43 46 47 43 41 38 39 35 35 39 55 50 61 61 61 57 52 50 53 51 50 47 46 46 45 43 41
41 41 40 43 43 46 47 47 44 43 40 37 45 52 61 55 63 75 82 76 64 58 53 50 50 51 47 42 44 45 41 34
44 43 46 44 43 47 48 45 43 39 40 41 52 58 50 54 62 72 78 74 72 63 63 58 52 48 45 40 35 31 31 33
52 50 51 47 45 45 44 44 42 44 42 41 47 47 48 52 59 64 70 71 62 58 61 55 52 49 38 38 35 34 36 38
60 57 53 48 48 45 47 46 46 46 46 50 52 54 55 58 61 64 60 53 52 56 52 48 47 43 35 36 38 41 44 55
73 63 57 54 55 52 51 51 53 55 56 55 55 58 57 56 55 53 48 44 47 45 44 42 38 31 32 39 45 48 56 54
75 68 60 61 57 58 60 60 58 54 54 57 57 52 48 47 44 44 42 46 47 47 46 45 43 42 46 53 58 64 63 54
80 71 67 63 61 68 66 58 53 54 57 48 40 39 38 38 35 39 43 43 46 46 48 49 51 51 58 61 67 64 56 42
89 77 68 71 72 71 64 52 50 54 43 35 32 31 33 36 35 34 40 42 43 43 51 54 56 62 61 66 54 39 31 28
94 79 75 77 80 71 52 48 52 46 37 38 37 39 39 35 39 48 55 62 62 63 67 59 53 53 54 49 39 30 25 24
86 77 74 80 75 55 45 50 52 44 41 40 41 46 40 44 56 63 63 64 63 66 62 50 43 44 43 39 34 30 27 22
85 74 76 71 63 52 46 54 53 49 44 45 53 50 48 40 44 50 57 61 57 55 58 52 39 39 35 25 27 29 28 25
79 76 71 66 59 50 51 54 47 44 43 51 53 48 41 37 41 46 48 50 44 40 42 37 32 33 29 28 27 26 22 20
79 77 73 67 52 50 52 52 48 44 42 47 47 41 35 34 34 31 32 34 33 34 34 33 32 27 27 28 28 26 23 18
78 75 72 68 52 52 53 54 48 41 38 41 44 40 33 29 27 25 22 21 21 23 26 27 23 24 25 26 24 23 15 11
79 74 70 65 55 54 55 52 46 40 38 39 36 27 23 23 23 22 19 19 21 21 20 17 17 20 22 22 22 12 8 8